[[{"header":{"parameterUnit":"m.s-1","parameterCategory":1,"la1":30.2991,"la2":30.254,"lo1":-89.0895,"lo2":-89.0444,"dy":0.0017,"dx":0.0017,"nx":28,"ny":28,"refTime":"2024-07-20T21:00:00:Z","depth":0,"parameterNumber":2,"parameterNumberName":"U-component_of_WINDS"},"data":[0,0,0,0,0,0,0,0,0,0,0,0,0,0,0,0,0,0,0,0,0,0,0,0,0,0,0,0,0,0,0,0,0,0,0,0,0,0,0,0,0,0,0,0,0,0,0,0,0,0,0,0,0,0,0,0,0,0,3.588,3.588,0,3.5923,3.5924,3.5924,3.5854,3.5851,3.5849,3.5847,3.5891,3.5894,3.5897,0,0,0,0,0,0,0,0,0,0,0,0,0,3.5735,3.5738,3.588,3.5881,3.5881,3.5923,3.5924,3.5924,3.5854,3.5851,3.5848,3.5846,3.5889,3.5893,3.5898,0,0,0,0,0,0,0,0,0,0,0,0,0,3.579,3.5739,3.588,3.5851,3.5849,3.5923,3.5924,3.5924,3.5855,3.5851,3.5848,3.5844,3.5888,3.5893,3.5898,3.6002,0,0,3.5914,3.5916,0,0,0,0,0,0,0,0,3.5787,3.5795,3.5855,3.5853,3.5851,3.5879,3.5888,3.595,3.5856,3.5853,3.5847,3.5842,3.589,3.5894,3.591,3.6004,3.6006,3.5914,3.5917,3.592,3.5921,0,0,0,0,0,0,0,3.5783,3.5793,3.5897,3.5856,3.5853,3.5835,3.5839,3.59,3.5891,3.5853,3.5848,3.5854,3.5888,3.5906,3.5911,3.6006,3.5914,3.5919,3.5922,3.5924,3.6182,3.6186,0,0,0,0,0,0,3.5783,3.579,3.5896,3.5898,3.5809,3.5841,3.5845,3.5874,3.589,3.5889,3.5857,3.585,3.5899,3.5905,3.5912,3.6031,3.5919,3.5924,3.5927,3.6178,3.6183,3.6187,0,0,0,0,0,0,3.578,3.5793,3.5894,3.5843,3.5854,3.5847,3.588,3.5877,3.5894,3.5893,3.5891,3.5877,3.5896,3.5905,3.5979,3.6031,3.5927,3.5931,3.6174,3.618,3.6185,3.6271,0,0,0,0,0,0,3.5776,3.5792,3.5833,3.5844,3.5857,3.5961,3.5883,3.588,3.5903,3.5895,3.5911,3.591,3.5894,3.5972,3.5984,3.6037,3.5935,3.6169,3.6176,3.6183,3.6264,3.6279,3.6292,0,0,0,0,0,3.5771,3.5856,3.5835,3.5848,3.5907,3.5964,3.5971,3.5951,3.5908,3.5947,3.5946,3.591,3.6025,3.598,3.5993,3.6048,3.6166,3.6174,3.6183,3.6257,3.6276,3.6292,0,0,0,0,0,0,3.5852,3.5857,3.5834,3.5925,3.5945,3.5952,3.6001,3.5973,3.6005,3.5996,3.5969,3.5973,3.6051,3.6058,3.6008,3.6147,3.6088,3.6099,3.614,3.6158,3.6172,3.6167,3.5939,0,0,0,0,0,3.588,3.5926,3.5929,3.6009,3.602,3.6009,3.6033,3.6015,3.6034,3.6042,3.6046,3.6066,3.6105,3.6133,3.617,3.6265,3.6265,3.6309,3.6323,3.6335,3.6345,3.6391,3.6409,3.6215,3.6215,3.6215,0,0,3.5939,3.5948,3.5979,3.6025,3.6038,3.6084,3.6017,3.607,3.6103,3.605,3.6119,3.6123,3.6143,3.6227,3.6264,3.6234,3.6398,3.6346,3.6356,3.6358,3.6402,3.642,3.6436,3.6221,3.622,3.6219,0,0,3.607,3.6083,3.6149,3.6162,3.6182,3.6174,3.619,3.6201,3.6201,3.627,3.623,3.6269,3.634,3.6354,3.6371,3.6504,3.647,3.6517,3.6591,3.6636,3.6651,3.6665,3.6708,3.6724,3.6527,3.6527,3.6527,0,3.614,3.6209,3.6186,3.6241,3.6261,3.6214,3.6279,3.6294,3.6325,3.6339,3.6306,3.639,3.6401,3.6485,3.6517,3.6534,3.6549,3.6513,3.6651,3.6664,3.6676,3.6717,3.6734,3.6532,3.6531,3.6531,3.653,0,3.6293,3.6341,3.6392,3.6421,3.6447,3.6508,3.6492,3.6521,3.6501,3.6496,3.6564,3.6575,3.6611,3.6631,3.6613,3.6712,3.6692,3.6656,3.6595,3.67,3.6738,3.6754,3.6539,3.6538,3.6536,3.6535,0,0,3.6475,3.6489,3.6508,3.6518,3.6536,3.6572,3.6629,3.6663,3.6687,3.671,3.6754,3.6814,3.6779,3.6798,3.6781,3.6821,3.692,3.6779,3.6779,3.6802,3.7025,3.7049,3.7068,3.6899,3.6902,3.6905,3.7022,0,3.6601,3.6698,3.6677,3.6772,3.6814,3.6769,3.6818,3.6833,3.683,3.6864,3.686,3.6901,3.6855,3.6865,3.6903,3.69,3.6964,3.6892,3.6938,3.694,3.693,3.7088,3.7115,3.7225,3.7037,3.704,3.7041,0,3.6761,3.6788,3.6886,3.6892,3.6909,3.6953,3.6981,3.7016,3.7031,3.7025,3.7045,3.7019,3.7073,3.7014,3.7087,3.7038,3.7056,3.7057,3.7061,3.7061,3.6994,3.7089,3.726,3.7275,3.7065,3.7063,3.7062,0,3.6878,3.6939,3.7004,3.7016,3.7026,3.7057,3.7063,3.7075,3.7096,3.7121,3.7133,3.7165,3.7181,3.7206,3.7188,3.7147,3.7262,3.7202,3.7256,3.7256,3.7279,3.7278,3.7451,3.7298,3.7298,3.7298,3.7297,0,3.7019,3.708,3.7056,3.7096,3.7162,3.7137,3.7203,3.7204,3.7214,3.7252,3.7217,3.7253,3.7229,3.7263,3.7251,3.731,3.7319,3.7314,3.7309,3.7315,3.7315,3.7323,3.7314,3.7302,3.7301,3.73,3.7299,0,3.716,3.7147,3.7214,3.7218,3.722,3.7268,3.727,3.7307,3.73,3.7348,3.7358,3.7348,3.7386,3.7371,3.7412,3.7403,3.7478,3.7465,3.7472,3.7467,3.752,3.7513,3.7702,3.7724,3.7561,3.7562,3.7564,0,3.7248,3.7293,3.7301,3.7323,3.7331,3.7368,3.7388,3.7366,3.7389,3.7407,3.7441,3.7475,3.7501,3.7563,3.7559,3.7589,3.7574,3.7638,3.7578,3.7581,3.757,3.7565,3.7568,3.7649,3.7651,3.7652,3.7654,0,3.7406,3.7396,3.7426,3.7454,3.7478,3.7499,3.7517,3.7538,3.7516,3.7542,3.758,3.76,3.764,3.7673,3.77,3.7705,3.7675,3.7673,3.7686,3.769,3.7691,3.7687,3.75,3.7668,3.7666,3.7665,3.7665,3.7664,3.752,3.7556,3.7565,3.7599,3.761,3.7627,3.7659,3.7656,3.7686,3.7716,3.7702,3.7744,3.7755,3.7787,3.7796,3.7828,3.7803,3.7824,3.7828,3.7832,3.7837,3.7689,3.7834,3.7833,3.7833,3.7832,3.7832,0,3.7671,3.7674,3.7706,3.773,3.7756,3.7726,3.7743,3.7767,3.7804,3.7817,3.7843,3.7884,3.7915,3.7913,3.7942,3.7968,3.7954,3.7976,3.7971,3.7972,3.786,3.7843,3.7985,3.7985,3.7985,3.7985,3.7985,3.7985,3.7752,3.781,3.7802,3.7863,3.7867,3.7907,3.7918,3.7933,3.7942,3.7989,3.8015,3.8013,3.8019,3.8047,3.8074,3.8073,3.8083,3.8109,3.8102,3.7996,3.7981,3.7966,3.795,3.8112,3.8112,3.821,3.8211,3.8212]},{"header":{"parameterUnit":"m.s-1","parameterCategory":1,"la1":30.2991,"la2":30.254,"lo1":-89.0895,"lo2":-89.0444,"dy":0.0017,"dx":0.0017,"nx":28,"ny":28,"refTime":"2024-07-20T21:00:00:Z","depth":0,"parameterNumber":3,"parameterNumberName":"V-component_of_WINDS"},"data":[0,0,0,0,0,0,0,0,0,0,0,0,0,0,0,0,0,0,0,0,0,0,0,0,0,0,0,0,0,0,0,0,0,0,0,0,0,0,0,0,0,0,0,0,0,0,0,0,0,0,0,0,0,0,0,0,0,0,3.6266,3.6267,0,3.638,3.6381,3.6383,3.6372,3.637,3.6369,3.6367,3.6482,3.6486,3.6491,0,0,0,0,0,0,0,0,0,0,0,0,0,3.6034,3.6039,3.6266,3.6267,3.6269,3.638,3.6381,3.6383,3.6372,3.637,3.6368,3.6366,3.648,3.6486,3.6491,0,0,0,0,0,0,0,0,0,0,0,0,0,3.614,3.604,3.6265,3.6277,3.6279,3.6379,3.6381,3.6383,3.6373,3.637,3.6368,3.6365,3.6478,3.6485,3.6492,3.6588,0,0,3.6513,3.6516,0,0,0,0,0,0,0,0,3.6134,3.6149,3.6274,3.6276,3.6279,3.6359,3.6342,3.6452,3.6373,3.6337,3.6367,3.6364,3.6443,3.6453,3.648,3.6593,3.6598,3.6514,3.6518,3.6521,3.6523,0,0,0,0,0,0,0,3.6127,3.6144,3.6311,3.6275,3.6279,3.6275,3.6287,3.6363,3.6403,3.634,3.634,3.6353,3.6444,3.6473,3.6482,3.66,3.6514,3.652,3.6524,3.6527,3.6794,3.6797,0,0,0,0,0,0,3.6117,3.6138,3.6307,3.6314,3.6199,3.6281,3.6295,3.6336,3.6402,3.641,3.6355,3.6352,3.6462,3.6474,3.6486,3.6601,3.6521,3.6528,3.6532,3.6791,3.6795,3.6798,0,0,0,0,0,0,3.6112,3.6133,3.6303,3.6226,3.6247,3.6288,3.6334,3.634,3.6369,3.6414,3.6421,3.6378,3.6461,3.6476,3.6562,3.6605,3.6531,3.6537,3.6788,3.6792,3.6796,3.6832,0,0,0,0,0,0,3.6106,3.6131,3.6169,3.6227,3.6251,3.6378,3.6337,3.6344,3.6381,3.6378,3.6437,3.6444,3.646,3.6552,3.6569,3.6613,3.6543,3.6784,3.679,3.6795,3.6827,3.6837,3.6845,0,0,0,0,0,3.6098,3.6175,3.6171,3.6191,3.63,3.638,3.6394,3.6411,3.6385,3.6422,3.6451,3.6442,3.6597,3.6561,3.658,3.6627,3.6782,3.6788,3.6795,3.6823,3.6835,3.6845,0,0,0,0,0,0,3.612,3.6182,3.6179,3.6277,3.6324,3.6379,3.6427,3.6424,3.6478,3.6473,3.6491,3.6504,3.659,3.6617,3.6575,3.6721,3.6686,3.6696,3.67,3.6712,3.6721,3.6712,3.6549,0,0,0,0,0,3.6137,3.6198,3.6249,3.633,3.6354,3.6386,3.6422,3.6431,3.6479,3.6499,3.6534,3.658,3.6638,3.6677,3.6734,3.6831,3.6842,3.6872,3.6881,3.6889,3.6897,3.6947,3.6961,3.6819,3.6819,3.6819,0,0,3.6172,3.6213,3.6251,3.6336,3.6373,3.6434,3.6403,3.647,3.6515,3.6508,3.6591,3.6618,3.6671,3.6762,3.6804,3.6787,3.6939,3.6897,3.6902,3.6907,3.6956,3.6969,3.6981,3.6824,3.6823,3.6822,0,0,3.6266,3.6304,3.6375,3.6413,3.6469,3.649,3.6506,3.6562,3.6579,3.6663,3.6658,3.6711,3.6813,3.685,3.6882,3.6987,3.6981,3.7005,3.7052,3.7101,3.7112,3.7122,3.7158,3.717,3.7014,3.7014,3.7014,0,3.6302,3.6395,3.6412,3.6479,3.6515,3.6512,3.6583,3.6618,3.669,3.6714,3.6695,3.6821,3.6856,3.6954,3.698,3.7007,3.7025,3.6998,3.711,3.712,3.7129,3.7163,3.7176,3.7017,3.7016,3.7016,3.7016,0,3.6435,3.65,3.655,3.6619,3.6661,3.673,3.6755,3.6796,3.68,3.6822,3.6905,3.6948,3.7011,3.7036,3.7041,3.7134,3.7121,3.7106,3.707,3.7145,3.7177,3.719,3.702,3.7019,3.7019,3.7018,0,0,3.6548,3.6624,3.6642,3.6672,3.6732,3.6782,3.6849,3.6912,3.6945,3.6994,3.7049,3.7134,3.7119,3.7156,3.7165,3.7208,3.7285,3.7186,3.7188,3.7201,3.7387,3.7397,3.7412,3.7281,3.7284,3.7286,3.7382,0,3.6646,3.6766,3.6782,3.6888,3.6946,3.6943,3.7001,3.7043,3.7065,3.7117,3.714,3.7199,3.7176,3.7198,3.724,3.7267,3.7322,3.726,3.7331,3.7333,3.7316,3.7429,3.7441,3.753,3.7395,3.7397,3.7398,0,3.6778,3.683,3.6941,3.6991,3.7016,3.7069,3.7126,3.7176,3.7223,3.7235,3.7275,3.7278,3.7345,3.7307,3.7399,3.7356,3.7386,3.7403,3.7406,3.7413,3.7369,3.7437,3.7559,3.7571,3.7419,3.7417,3.7416,0,3.6846,3.6944,3.7023,3.7049,3.711,3.7146,3.7173,3.7217,3.7253,3.7303,3.7326,3.7383,3.7414,3.7457,3.7474,3.7445,3.7564,3.7528,3.7574,3.7574,3.7599,3.7596,3.7725,3.762,3.762,3.762,3.762,0,3.6954,3.7022,3.7054,3.7102,3.7177,3.7193,3.7266,3.7292,3.7331,3.7382,3.7383,3.7431,3.7452,3.7503,3.7517,3.7589,3.7603,3.7614,3.7616,3.7613,3.7611,3.7632,3.7625,3.7623,3.7623,3.7622,3.7621,0,3.7043,3.7068,3.7152,3.7203,3.7217,3.7269,3.7311,3.7357,3.7378,3.7443,3.7459,3.7491,3.755,3.7572,3.7645,3.7654,3.7737,3.7735,3.7721,3.7721,3.7765,3.776,3.791,3.793,3.7814,3.7815,3.7816,0,3.7109,3.7161,3.7216,3.7251,3.7279,3.7335,3.7371,3.7389,3.7427,3.7483,3.7521,3.758,3.7628,3.7723,3.7752,3.7807,3.7805,3.7854,3.7813,3.7807,3.7803,3.7799,3.7803,3.7861,3.7862,3.7863,3.7864,0,3.7224,3.7233,3.7285,3.7342,3.7385,3.743,3.7474,3.7502,3.7525,3.7567,3.7628,3.7665,3.7739,3.7796,3.7852,3.7878,3.7874,3.7877,3.789,3.7886,3.7875,3.7879,3.774,3.7873,3.7872,3.7871,3.7871,3.7871,3.7302,3.7347,3.7392,3.745,3.7484,3.7525,3.7569,3.7595,3.7646,3.7707,3.7714,3.7779,3.7822,3.7896,3.7925,3.7974,3.7961,3.7981,3.7985,3.7989,3.7991,3.7868,3.7985,3.7984,3.7984,3.7984,3.7984,0,3.7415,3.7443,3.7496,3.7557,3.7602,3.7595,3.7642,3.7679,3.7737,3.7777,3.7824,3.7893,3.7948,3.7981,3.8036,3.8069,3.8069,3.8083,3.808,3.8085,3.8002,3.7984,3.8082,3.8082,3.8082,3.8082,3.8082,3.8082,3.7479,3.7553,3.7567,3.7657,3.7685,3.7749,3.7776,3.7812,3.7845,3.7921,3.7967,3.7988,3.8025,3.8082,3.8132,3.814,3.8159,3.8175,3.8181,3.8102,3.8092,3.8082,3.8065,3.8179,3.8179,3.8261,3.8261,3.8262]}]]